User: anonymous   Login
Location: Unspecified
(0.0000°N, 0.0000°E)
Time: 07:27:23
(UTC+02:00)
Language:

NOAA 12 - Orbit

View from above orbital plane
View from above orbital plane
View from above satellite
View from above satellite

Ground track
Ground track

The orbit data is extracted from the following two-line orbital elements,

1 21263U 91032A   16268.47721715 -.00000015  00000-0  12009-4 0  9999
2 21263  98.5897 292.2062 0013297 342.1597  17.9115 14.25821968318864
Epoch (UTC): 24 September 2016 11:27:11
Eccentricity: 0.0013297
inclination: 98.5897°
perigee height: 796 km
apogee height: 815 km
right ascension of ascending node: 292.2062°
argument of perigee: 342.1597°
revolutions per day: 14.25821968
mean anomaly at epoch: 17.9115°
orbit number at epoch: 31886

The dashed part of the orbit path shows where the satellite is in the earth's shadow,  

DLR